Flag for Germany Weather past 2 weeks in Greifswald, Mecklenburg-Western Pomerania, Germany

Now
54 °F

Fog.


Feels Like: 54 °F
Forecast: 52 / 57 °F
Wind: 1 mph from Southwest

Location: Greifswald

Current Time: Sep 21, 2014 at 3:09:47 AM

Latest Report: Sep 21, 2014 at 2:00 AM


Visibility: 0 mi

Pressure: 29.88 "Hg

Humidity: 99%

Dew point: 53 °F

Location of GreifswaldLocation

Historic Weather in Greifswald — Graph

°F

Greifswald temperature yesterday

Maximum temperature yesterday: 68 °F (at 1:00 PM)
Minimum temperature yesterday: 52 °F (at 5:00 AM)
Average temperature yesterday: 58 °F

Past Weeks' High & Low Weather Summary

 TemperatureHumidityPressure
High76 °F (Sep 6, 3:00 PM)100% (Sep 11, 7:00 AM)30.22 "Hg (Sep 11, 7:00 AM)
Low48 °F (Sep 11, 7:00 AM)47% (Sep 6, 2:00 PM)29.88 "Hg (Sep 21, 2:00 AM)
Average61 °F86%30.06 "Hg
* Reported Sep 6 2:00 AM — Sep 21 2:00 AM, Greifswald, Weather by CustomWeather, © 2014

Note: Actual official high and low records may vary slightly from our data, if they occured in-between our weather recording intervals... More about our weather records

Advertising

Greifswald weather history for previous 24 hours

 ConditionsComfort  
Time TempWeatherWind HumidityBarometerVisibility
2:00 AM
Sep 21
54 °FFog.1 mph99%29.88 "Hg0 mi
1:00 AM54 °FFog.1 mph98%29.88 "Hg1 mi
12:00 AM55 °FFog.1 mph97%29.90 "Hg1 mi
10:00 PM
Sep 20
58 °FFog.1 mph96%29.91 "Hg2 mi
9:00 PM59 °FFog.1 mph95%29.92 "Hg2 mi
8:00 PM61 °FFog.1 mph91%29.92 "Hg4 mi
3:00 PM68 °FHaze.3 mph75%29.93 "Hg4 mi
2:00 PM68 °FHaze.2 mph74%29.94 "Hg4 mi
1:00 PM68 °FScattered clouds.2 mph72%29.95 "Hg4 mi
12:00 PM66 °FFog.2 mph78%29.96 "Hg3 mi
11:00 AM61 °FFog.1 mph81%29.96 "Hg3 mi
10:00 AM57 °FFog.1 mph97%29.96 "Hg0 mi
9:00 AM56 °FFog.1 mph98%29.96 "Hg0 mi
8:00 AM54 °FFog.1 mph100%29.96 "Hg0 mi
7:00 AM54 °FFog.1 mph99%29.95 "Hg0 mi
6:00 AM53 °FFog.1 mph99%29.95 "Hg0 mi
5:00 AM52 °FFog.1 mph97%29.96 "Hg1 mi
4:00 AM52 °FFog.1 mph98%29.95 "Hg0 mi
3:00 AM53 °FFog.1 mph98%29.96 "Hg1 mi
Weather by CustomWeather, © 2014

See weather overviewHow to use our weather pages